Weather History for Granite Falls, MN

Change the Weather History Date:

Sunday, October 13, 2013

  Actual Average (KMVE) Record (KMVE)
Temperature  
Mean Temperature 45 °F -  
Max Temperature 60 °F 61 °F 85 °F (1956)
Min Temperature 30 °F 39 °F 21 °F (1979)
Degree Days  
Heating Degree Days 20    
Moisture  
Dew Point 32 °F    
Average Humidity 64    
Maximum Humidity 93    
Minimum Humidity 32    
Precipitation  
Precipitation 0.00 in - - ()
Sea Level Pressure  
Sea Level Pressure 30.36 in    
Wind  
Wind Speed 5 mph (South)    
Max Wind Speed 8 mph    
Max Gust Speed -    
Visibility 8 miles    
Events      
Averages and records for this station are not official NWS values.
T = Trace of Precipitation, MM = Missing Value Source: NWS Daily Summary

Daily Weather History Graph

Daily Weather History Graph

Search for Another Location

Airport:

Trip Planner

Search our weather history database for the weather conditions in past years. The results will help you decide how hot, cold, wet, or windy it might be!

Date:

Astronomy

Oct. 13, 2013 Rise Set
Actual Time 7:35 AM CDT 6:40 PM CDT
Civil Twilight 7:06 AM CDT 7:09 PM CDT
Nautical Twilight 6:32 AM CDT 7:43 PM CDT
Astronomical Twilight 5:58 AM CDT 8:17 PM CDT
Moon 3:44 PM CDT (10/13) 1:33 AM CDT (10/13)
Length of Visible Light 12h 03m
Length of Day
11h 05m
Waxing Gibbous, 69% of the Moon is Illuminated
Oct 13
Waxing Gibbous
Oct 18
Full
Oct 26
Last Quarter
Nov 3
New
Nov 9
First Quarter

Hourly Weather History & Observations

Time (CDT) Temp. Windchill Dew Point Humidity Pressure Visibility Wind Dir Wind Speed Gust Speed Precip Events Conditions
12:13 AM 36.5 °F 31.8 °F 32.0 °F 84% 30.25 in 10.0 mi WSW 5.8 mph - N/A   Clear
12:32 AM 36.7 °F 32.0 °F 31.8 °F 83% 30.25 in 10.0 mi West 5.8 mph - N/A   Clear
12:53 AM 36.5 °F 31.8 °F 31.6 °F 83% 30.26 in 10.0 mi WSW 5.8 mph - N/A   Clear
1:13 AM 35.6 °F 29.9 °F 31.1 °F 84% 30.27 in 10.0 mi WSW 6.9 mph - N/A   Clear
1:32 AM 35.1 °F 30.1 °F 31.1 °F 85% 30.28 in 10.0 mi WSW 5.8 mph - N/A   Clear
1:53 AM 34.9 °F 28.3 °F 31.1 °F 86% 30.28 in 10.0 mi WSW 8.1 mph - N/A   Clear
2:13 AM 34.7 °F 31.8 °F 31.1 °F 87% 30.28 in 10.0 mi WSW 3.5 mph - N/A   Clear
2:32 AM 33.3 °F 27.9 °F 30.0 °F 88% 30.30 in 10.0 mi West 5.8 mph - N/A   Clear
2:53 AM 32.4 °F 26.0 °F 29.5 °F 89% 30.30 in 10.0 mi WSW 6.9 mph - N/A   Clear
3:12 AM 32.9 °F 26.7 °F 30.2 °F 90% 30.31 in 10.0 mi WSW 6.9 mph - N/A   Clear
3:33 AM 33.8 °F 27.7 °F 30.7 °F 89% 30.32 in 10.0 mi WSW 6.9 mph - N/A   Clear
3:53 AM 32.9 °F 27.5 °F 30.0 °F 89% 30.32 in 10.0 mi WSW 5.8 mph - N/A   Clear
4:12 AM 32.9 °F 26.7 °F 30.2 °F 90% 30.33 in 10.0 mi WSW 6.9 mph - N/A   Clear
4:33 AM 32.0 °F 26.4 °F 29.3 °F 90% 30.33 in 10.0 mi WSW 5.8 mph - N/A   Clear
4:53 AM 32.0 °F 26.4 °F 29.7 °F 91% 30.34 in 10.0 mi WSW 5.8 mph - N/A   Clear
5:13 AM 32.2 °F 25.8 °F 29.8 °F 91% 30.34 in 10.0 mi WSW 6.9 mph - N/A   Clear
5:33 AM 32.2 °F 26.7 °F 29.3 °F 89% 30.35 in 10.0 mi WSW 5.8 mph - N/A   Clear
5:53 AM 31.1 °F 26.4 °F 28.6 °F 90% 30.35 in 10.0 mi WSW 4.6 mph - N/A   Clear
6:13 AM 31.1 °F 26.4 °F 28.4 °F 90% 30.35 in 10.0 mi WSW 4.6 mph - N/A   Clear
6:33 AM 31.6 °F 27.0 °F 29.1 °F 90% 30.36 in 10.0 mi WSW 4.6 mph - N/A   Clear
6:53 AM 30.0 °F 24.1 °F 27.5 °F 90% 30.37 in 10.0 mi WSW 5.8 mph - N/A   Clear
7:13 AM 30.2 °F 25.4 °F 28.2 °F 92% 30.37 in 10.0 mi West 4.6 mph - N/A   Clear
7:33 AM 30.2 °F 24.3 °F 27.9 °F 91% 30.38 in 10.0 mi SW 5.8 mph - N/A   Clear
7:53 AM 30.2 °F 26.7 °F 27.5 °F 90% 30.39 in 7.0 mi WSW 3.5 mph - N/A   Clear
8:13 AM 31.3 °F 27.9 °F 28.9 °F 91% 30.40 in 7.0 mi SW 3.5 mph - N/A   Clear
8:33 AM 33.6 °F 30.6 °F 31.8 °F 93% 30.41 in 7.0 mi SW 3.5 mph - N/A   Clear
8:53 AM 37.2 °F - 33.1 °F 85% 30.41 in 7.0 mi Calm Calm - N/A   Clear
9:13 AM 39.7 °F - 34.7 °F 82% 30.42 in 7.0 mi Calm Calm - N/A   Clear
9:33 AM 43.0 °F 41.3 °F 35.4 °F 75% 30.43 in 7.0 mi WSW 3.5 mph - N/A   Clear
9:52 AM 45.5 °F - 36.7 °F 71% 30.43 in 10.0 mi Calm Calm - N/A   Clear
10:13 AM 47.5 °F - 36.0 °F 64% 30.43 in 7.0 mi Calm Calm - N/A   Clear
10:33 AM 49.8 °F - 35.4 °F 58% 30.44 in 7.0 mi Calm Calm - N/A   Clear
10:53 AM 51.8 °F - 35.1 °F 53% 30.44 in 10.0 mi Calm Calm - N/A   Clear
11:13 AM 53.1 °F - 34.0 °F 48% 30.43 in 7.0 mi Calm Calm - N/A   Clear
11:33 AM 54.7 °F - 32.7 °F 43% 30.44 in 7.0 mi WNW 3.5 mph - N/A   Clear
11:53 AM 55.8 °F - 32.5 °F 41% 30.43 in 10.0 mi Calm Calm - N/A   Clear
12:12 PM 56.8 °F - 30.9 °F 37% 30.43 in 7.0 mi Calm Calm - N/A   Clear
12:33 PM 56.3 °F - 30.6 °F 38% 30.43 in 7.0 mi Calm Calm - N/A   Clear
12:53 PM 56.8 °F - 31.3 °F 38% 30.43 in 10.0 mi North 3.5 mph - N/A   Clear
1:13 PM 57.6 °F - 31.3 °F 37% 30.42 in 10.0 mi North 4.6 mph - N/A   Scattered Clouds
1:32 PM 58.3 °F - 31.1 °F 36% 30.41 in 5.0 mi East 4.6 mph - N/A   Haze
1:53 PM 58.6 °F - 30.2 °F 34% 30.40 in 10.0 mi West 3.5 mph - N/A   Scattered Clouds
2:12 PM 58.6 °F - 30.4 °F 34% 30.40 in 7.0 mi Calm Calm - N/A   Scattered Clouds
2:33 PM 59.5 °F - 30.6 °F 33% 30.39 in 7.0 mi Calm Calm - N/A   Mostly Cloudy
2:53 PM 59.2 °F - 29.3 °F 32% 30.38 in 7.0 mi Calm Calm - N/A   Overcast
3:12 PM 58.5 °F - 30.0 °F 34% 30.38 in 7.0 mi NE 3.5 mph - N/A   Overcast
3:33 PM 60.3 °F - 31.8 °F 34% 30.37 in 7.0 mi NNE 4.6 mph - N/A   Overcast
3:53 PM 59.2 °F - 32.0 °F 36% 30.38 in 10.0 mi NNE 3.5 mph - N/A   Overcast
4:13 PM 59.0 °F - 31.1 °F 35% 30.37 in 10.0 mi East 5.8 mph - N/A   Overcast
4:33 PM 59.4 °F - 30.6 °F 34% 30.37 in 10.0 mi East 4.6 mph - N/A   Scattered Clouds
4:53 PM 59.0 °F - 32.9 °F 37% 30.37 in 7.0 mi ENE 5.8 mph - N/A   Scattered Clouds
5:13 PM 59.5 °F - 31.1 °F 34% 30.37 in 7.0 mi ENE 4.6 mph - N/A   Scattered Clouds
5:32 PM 57.2 °F - 31.8 °F 38% 30.37 in 7.0 mi ENE 6.9 mph - N/A   Clear
5:53 PM 56.1 °F - 32.4 °F 41% 30.36 in 7.0 mi ENE 5.8 mph - N/A   Mostly Cloudy
6:13 PM 56.3 °F - 32.4 °F 40% 30.36 in 7.0 mi ENE 5.8 mph - N/A   Overcast
6:32 PM 54.5 °F - 32.7 °F 44% 30.36 in 7.0 mi ENE 5.8 mph - N/A   Scattered Clouds
6:53 PM 52.7 °F - 32.9 °F 47% 30.36 in 7.0 mi ENE 4.6 mph - N/A   Clear
7:13 PM 51.4 °F - 33.1 °F 50% 30.36 in 7.0 mi ENE 5.8 mph - N/A   Clear
7:33 PM 50.5 °F - 33.1 °F 51% 30.35 in 7.0 mi East 5.8 mph - N/A   Clear
7:53 PM 49.8 °F - 33.3 °F 53% 30.35 in 7.0 mi East 5.8 mph - N/A   Clear
8:13 PM 49.1 °F - 33.1 °F 54% 30.35 in 7.0 mi East 5.8 mph - N/A   Clear
8:33 PM 48.7 °F - 33.8 °F 56% 30.35 in 7.0 mi East 4.6 mph - N/A   Clear
8:52 PM 48.7 °F - 34.0 °F 57% 30.35 in 7.0 mi East 4.6 mph - N/A   Clear
9:13 PM 48.2 °F - 33.8 °F 58% 30.35 in 7.0 mi East 5.8 mph - N/A   Clear
9:32 PM 47.3 °F - 33.8 °F 59% 30.35 in 7.0 mi East 4.6 mph - N/A   Scattered Clouds
9:53 PM 47.8 °F - 34.0 °F 59% 30.36 in 10.0 mi East 4.6 mph - N/A   Mostly Cloudy
10:13 PM 46.8 °F - 34.3 °F 62% 30.36 in 7.0 mi East 4.6 mph - N/A   Mostly Cloudy
10:33 PM 46.4 °F 43.5 °F 34.0 °F 62% 30.37 in 7.0 mi East 5.8 mph - N/A   Scattered Clouds
10:53 PM 46.0 °F 43.1 °F 34.0 °F 63% 30.37 in 7.0 mi East 5.8 mph - N/A   Mostly Cloudy
11:12 PM 45.5 °F 42.5 °F 34.0 °F 64% 30.37 in 7.0 mi East 5.8 mph - N/A   Mostly Cloudy
11:33 PM 45.5 °F 42.5 °F 34.3 °F 65% 30.37 in 10.0 mi East 5.8 mph - N/A   Mostly Cloudy
11:53 PM 45.5 °F 42.5 °F 34.2 °F 65% 30.36 in 7.0 mi East 5.8 mph - N/A   Mostly Cloudy